Find Starlink 31769

NORAD ID: 59617 Int'l Des: 2024-080 Owner: SPXS Country: US Constellation: starlink operational
LEOCIRCULAR

リアルタイム位置

3D地球を読み込み中...

Starlink 31769について

説明を読み込み中...

次回通過

Passes for default location (London). Set your location on the main map for personalized predictions.

高度履歴

Loading altitude history...

軌道要素

1 59617U 24080S 26132.01564409 .00002866 00000-0 11364-3 0 9995
2 59617 43.0039 40.6110 0001471 275.1609 84.9075 15.27580080114212
Epoch: May 12, 2026 • Age: 15 hours

現在のステータス

高度 490.7 km
速度 7.62 km/s
衛星直下点 -30.85°S, 153.79°E
打ち上げ日 Apr 28, 2024
運用期間 2 years
タイプ internet

技術仕様

分類 Payload
質量 730.00 kg
乾燥質量 700.00 kg
総質量 730.00 kg
長さ 0.30 m
直径 4.10 m
スパン 29.00 m
形状 Box + pan
製造者 SPXS
バスタイプ Starlink V2M
フェーズステータス In Orbit
所有者/国 SPXS/US

Most Searched